Regional Weather Roundup
Issued by NWS

Home | Current Version | Previous Version | Text Only | Print | Product List | Glossary On
Versions: 1 2 3 4 5 6 7 8 9 10 11 12 13 14 15 16 17 18 19 20 21 22 23 24 25 26 27 28 29 30 31 32 33 34 35 36 37 38 39 40 41 42 43 44 45 46 47 48 49 50
000
ASUS43 KTOP 220508
RWRKS

WEATHER ROUNDUP FOR KANSAS
NATIONAL WEATHER SERVICE GOODLAND KS
1100 PM CST TUE NOV 21 2017

NOTE:  "FAIR" INDICATES FEW OR NO CLOUDS BELOW 12,000 FEET WITH NO
SIGNIFICANT WEATHER AND/OR OBSTRUCTIONS TO VISIBILITY.

KSZ001>006-013>018-027>032-041>047-220600-
NORTHWEST KANSAS

CITY           SKY/WX    TMP DP  RH WIND       PRES   REMARKS
GOODLAND       CLOUDY    31  24  75 S8        30.32F
HAYS           CLOUDY    23  13  65 W3        30.42R
HILL CITY      CLOUDY    21  13  71 CALM      30.41R
RUSSELL        CLOUDY    25  12  58 NE5       30.40S
$$

KSZ061>065-074>080-084>089-220600-
SOUTHWEST KANSAS

CITY           SKY/WX    TMP DP  RH WIND       PRES   REMARKS
DODGE CITY     CLOUDY    27  15  61 N3        30.39F
ELKHART        CLEAR     35  28  76 CALM      30.40R
GARDEN CITY    CLEAR     32  19  58 E7        30.38S
GREAT BEND     CLOUDY    21  12  68 CALM      30.42R
LIBERAL        CLOUDY    29  21  72 CALM      30.39S
PRATT          CLOUDY    26  11  52 N7        30.41R
$$

KSZ066>073-081>083-090>101-220600-
SOUTHEAST KANSAS

CITY           SKY/WX    TMP DP  RH WIND       PRES   REMARKS
CHANUTE        CLOUDY    30  16  56 N9        30.36F
COFFEYVILLE    CLEAR     33  18  53 N10       30.37S WCI  25
HUTCHINSON     CLOUDY    27  13  55 N7        30.42R
MEDICINE LODGE   N/A     29  13  51 N5        30.41R
NEWTON         CLOUDY    23  13  65 N9        30.41R
PARSONS        CLEAR     32  18  56 N8        30.37F
WICHITA INTL   CLOUDY    31  15  52 N9        30.40R
WICHITA JABRA  CLOUDY    24  15  68 N7        30.39R
WICHITA MCCONL CLOUDY    28  13  52 N14       30.39R WCI  17
WINFIELD       CLOUDY    26  15  63 NW8       30.41R
$$

KSZ007>012-019>026-033>040-048>060-102>105-220600-
NORTHEAST KANSAS

CITY           SKY/WX    TMP DP  RH WIND       PRES   REMARKS
CONCORDIA      PTCLDY    23  12  62 NE5       30.42S
EMPORIA        CLOUDY    24  13  62 N6        30.39S
LAWRENCE       CLOUDY    24  16  71 NW10      30.42R WCI  14
MANHATTAN      CLOUDY    25  13  60 N5        30.44R
MARYSVILLE     CLOUDY    21  14  73 N8        30.42R
OLATHE IND     CLOUDY    24  16  71 NW9       30.39S
OLATHE EXE     CLEAR     28  15  58 N13       30.37S WCI  17
SALINA         CLOUDY    25  13  60 NW5       30.44R
TOPEKA BILLARD CLOUDY    26  15  63 N6        30.41S
TOPEKA FORBES  CLOUDY    29  14  53 N12       30.40R WCI  19
$$




USA.gov is the U.S. government's official web portal to all federal, state and local government web resources and services.